This demonstration page uses our WeatherBlox Daily Observations layout. Learn more.

Left ArrowRight Arrow

Hourly Observations for March 20, 2018

Temp ( °F °C ) Dew Point ( °F °C ) Humidity (%) Winds ( mph kmh ) Pressure ( in mb ) Visibility ( mi km ) Precip ( " mm )
12:53 am 00:53 Clear 50 10 35 1.7 57 57 NNW 5 7 30.05 1018 10 16 0.00 0.00
1:53 am 01:53 Clear 48 8.9 38 3.3 68 68 N 5 7 30.04 1017 10 16 0.00 0.00
2:53 am 02:53 Clear 48 8.9 35 1.7 61 61 NNW 3 6 30.04 1017 10 16 0.00 0.00
3:53 am 03:53 Cloudy 49 9.4 34 1.1 56 56 N 5 7 30.03 1017 10 16 0.00 0.00
4:53 am 04:53 Mostly Cloudy 49 9.4 35 1.7 59 59 N 6 9 30.01 1016 10 16 0.00 0.00
5:53 am 05:53 Cloudy 49 9.4 34 1.1 56 56 NNW 3 6 30.01 1016 10 16 0.00 0.00
6:53 am 06:53 Cloudy 49 9.4 34 1.1 56 56 NW 3 6 30.01 1016 10 16 0.00 0.00
7:53 am 07:53 Cloudy 49 9.4 36 2.2 61 61 NNW 5 7 30.03 1017 10 16 0.00 0.00
8:53 am 08:53 Cloudy 50 10 37 2.8 61 61 N 8 13 30.01 1016 10 16 0.00 0.00
9:53 am 09:53 Cloudy 52 11.1 40 4.4 64 64 N 10 17 30.03 1017 10 16 0.00 0.00
10:53 am 10:53 Cloudy 53 11.7 41 5 64 64 N 14 22 30.02 1017 10 16 0.00 0.03
11:53 am 11:53 Cloudy 56 13.3 40 4.4 55 55 N 14 22 30.00 1016 10 16 0.00 0.00
12:53 pm 12:53 Cloudy 54 12.2 40 4.4 59 59 N 10 17 30.00 1016 10 16 0.00 0.00
1:53 pm 13:53 Cloudy 54 12.2 41 5 62 62 N 9 15 30.00 1016 10 16 0.00 0.00
2:53 pm 14:53 Cloudy with Light Rain 54 12.2 43 6.1 67 67 N 6 9 30.00 1016 10 16 0.00 0.03
3:53 pm 15:53 Cloudy with Light Rain 53 11.7 46 7.8 77 77 VRB 3 6 29.98 1015 7 11 0.01 0.25
4:33 pm 16:33 Cloudy 53 11.7 47 8.3 80 80 N 5 7 29.97 1015 10 16 0.00 0.03
4:53 pm 16:53 Cloudy 52 11.1 46 7.8 80 80 VRB 3 6 29.96 1015 8 13 0.00 0.03
5:17 pm 17:17 Cloudy with Light Rain 51 10.6 48 8.9 89 89 Calm 29.97 1015 2 3 0.00 0.03
5:53 pm 17:53 Cloudy with Light Rain 50 10 48 8.9 93 93 NNE 3 6 29.94 1014 2 2 0.02 0.51
6:12 pm 18:12 Cloudy with Light Rain 50 10 48 8.9 93 93 N 3 6 29.94 1014 2 3 0.01 0.25
6:16 pm 18:16 Cloudy with Light Rain 50 10 48 8.9 93 93 N 5 7 29.94 1014 2 3 0.02 0.51
6:48 pm 18:48 Cloudy with Light Rain 50 10 48 9 94 94 NNW 3 6 29.94 1014 2 3 0.03 0.76
6:53 pm 18:53 Cloudy with Light Rain 50 10 49 9.4 96 96 Calm 29.92 1013 2 3 0.03 0.76
7:18 pm 19:18 Cloudy with Mist and Fog 50 10 49 9.4 96 96 NW 3 6 29.94 1014 4 6 0.01 0.25
7:53 pm 19:53 Cloudy with Light Rain 50 10 48 8.9 93 93 Calm 29.91 1013 8 13 0.02 0.51
8:04 pm 20:04 Cloudy with Light Rain 50 10 48 8.9 93 93 Calm 29.94 1014 6 10 0.01 0.25
8:30 pm 20:30 Cloudy with Light Rain 49 9.4 48 8.9 97 97 N 5 7 29.94 1014 6 10 0.05 1.27
8:50 pm 20:50 Cloudy with Light Rain 48 9 48 9 100 100 N 7 11 29.94 1014 8 13 0.08 2.03
8:53 pm 20:53 Cloudy with Light Rain 49 9.4 48 8.9 97 97 N 6 9 29.91 1013 8 13 0.08 2.03
9:16 pm 21:16 Cloudy with Rain 49 9.4 49 9.4 100 100 Calm 29.94 1014 4 6 0.03 0.76
9:39 pm 21:39 Cloudy 49 9.4 48 8.9 97 97 N 5 7 29.94 1014 8 13 0.04 1.02
9:53 pm 21:53 Cloudy with Light Rain 49 9.4 48 8.9 97 97 N 6 9 29.90 1013 7 11 0.05 1.27
10:08 pm 22:08 Cloudy with Light Rain 49 9.4 48 8.9 97 97 Calm 29.94 1014 8 13 0.00 0.03
10:53 pm 22:53 Cloudy 50 10 48 8.9 93 93 Calm 29.89 1012 9 14 0.00 0.03
11:49 pm 23:49 Cloudy with Light Rain 48 9 48 9 100 100 W 3 6 29.91 1013 5 8 0.02 0.51
11:53 pm 23:53 Cloudy with Light Rain 50 10 48 8.9 93 93 NW 3 6 29.88 1012 5 8 0.03 0.76

Powered by AerisWeather